timestamp,wind_dir_avg,wind_spd_max_dir,wind_spd_avg,wind_spd_gust,battery_voltage,lat,long
2018-02-05 00:00:00+00:00,206.0,207.0,11.57,12.7,,47.59359,-54.27349
2018-02-05 00:10:00+00:00,203.0,200.0,12.24,14.18,,47.59359,-54.27349
2018-02-05 00:20:00+00:00,203.0,206.0,12.92,14.88,,47.59359,-54.27349
2018-02-05 00:30:00+00:00,206.0,203.0,11.78,14.51,,47.59359,-54.27349
2018-02-05 00:40:00+00:00,202.0,203.0,10.24,12.24,,47.59359,-54.27349
2018-02-05 00:50:00+00:00,208.0,211.0,10.96,12.47,,47.59359,-54.27349
2018-02-05 01:00:00+00:00,206.0,209.0,11.75,13.42,,47.59359,-54.27349
2018-02-05 01:10:00+00:00,210.0,211.0,12.42,14.33,,47.59359,-54.27349
2018-02-05 01:20:00+00:00,205.0,208.0,12.5,14.58,,47.59359,-54.27349
2018-02-05 01:30:00+00:00,212.0,218.0,12.43,15.56,,47.59359,-54.27349
2018-02-05 01:40:00+00:00,208.0,210.0,12.23,16.22,,47.59359,-54.27349
2018-02-05 01:50:00+00:00,213.0,219.0,10.93,13.03,,47.59359,-54.27349
2018-02-05 02:00:00+00:00,207.0,201.0,11.06,14.72,,47.59359,-54.27349
2018-02-05 02:10:00+00:00,210.0,210.0,11.58,13.19,,47.59359,-54.27349
2018-02-05 02:20:00+00:00,219.0,223.0,14.31,17.99,,47.59359,-54.27349
2018-02-05 02:30:00+00:00,215.0,213.0,12.99,15.7,,47.59359,-54.27349
2018-02-05 02:40:00+00:00,221.0,226.0,14.72,18.69,,47.59359,-54.27349
2018-02-05 02:50:00+00:00,212.0,207.0,13.91,16.11,,47.59359,-54.27349
2018-02-05 03:00:00+00:00,215.0,223.0,14.82,17.92,,47.59359,-54.27349
2018-02-05 03:10:00+00:00,222.0,222.0,16.52,20.36,,47.59359,-54.27349
2018-02-05 03:20:00+00:00,218.0,227.0,14.92,17.79,,47.59359,-54.27349
2018-02-05 03:30:00+00:00,214.0,213.0,14.95,17.26,,47.59359,-54.27349
2018-02-05 03:40:00+00:00,219.0,223.0,13.85,18.93,,47.59359,-54.27349
2018-02-05 03:50:00+00:00,223.0,224.0,17.61,18.95,,47.59359,-54.27349
2018-02-05 04:00:00+00:00,222.0,222.0,17.3,19.71,,47.59359,-54.27349
2018-02-05 04:10:00+00:00,218.0,219.0,14.59,16.81,,47.59359,-54.27349
2018-02-05 04:20:00+00:00,218.0,222.0,15.43,19.72,,47.59359,-54.27349
2018-02-05 04:30:00+00:00,217.0,225.0,13.52,17.31,,47.59359,-54.27349
2018-02-05 04:40:00+00:00,222.0,222.0,16.79,19.22,,47.59359,-54.27349
2018-02-05 04:50:00+00:00,223.0,233.0,13.03,16.43,,47.59359,-54.27349
2018-02-05 05:00:00+00:00,217.0,225.0,12.53,14.03,,47.59359,-54.27349
2018-02-05 05:10:00+00:00,217.0,217.0,13.25,15.58,,47.59359,-54.27349
2018-02-05 05:20:00+00:00,215.0,216.0,13.32,14.29,,47.59359,-54.27349
2018-02-05 05:30:00+00:00,214.0,218.0,11.77,14.0,,47.59359,-54.27349
2018-02-05 05:40:00+00:00,212.0,215.0,12.83,14.31,,47.59359,-54.27349
2018-02-05 05:50:00+00:00,214.0,220.0,14.11,15.55,,47.59359,-54.27349
2018-02-05 06:00:00+00:00,217.0,232.0,12.48,14.53,,47.59359,-54.27349
2018-02-05 06:10:00+00:00,212.0,214.0,12.22,13.88,,47.59359,-54.27349
2018-02-05 06:20:00+00:00,219.0,219.0,11.29,12.76,,47.59359,-54.27349
2018-02-05 06:30:00+00:00,218.0,219.0,11.89,12.89,,47.59359,-54.27349
2018-02-05 06:40:00+00:00,217.0,226.0,11.13,12.91,,47.59359,-54.27349
2018-02-05 06:50:00+00:00,212.0,218.0,10.91,13.17,,47.59359,-54.27349
2018-02-05 07:00:00+00:00,209.0,209.0,11.62,13.56,,47.59359,-54.27349
2018-02-05 07:10:00+00:00,211.0,209.0,11.0,12.55,,47.59359,-54.27349
2018-02-05 07:20:00+00:00,209.0,205.0,12.98,14.92,,47.59359,-54.27349
2018-02-05 07:30:00+00:00,212.0,214.0,11.82,13.67,,47.59359,-54.27349
2018-02-05 07:40:00+00:00,212.0,206.0,10.21,12.58,,47.59359,-54.27349
2018-02-05 07:50:00+00:00,207.0,212.0,10.33,11.76,,47.59359,-54.27349
2018-02-05 08:00:00+00:00,200.0,206.0,10.48,12.03,,47.59359,-54.27349
2018-02-05 08:10:00+00:00,200.0,197.0,11.09,12.41,,47.59359,-54.27349
2018-02-05 08:20:00+00:00,207.0,211.0,13.2,17.1,,47.59359,-54.27349
2018-02-05 08:30:00+00:00,208.0,205.0,13.37,16.18,,47.59359,-54.27349
2018-02-05 08:40:00+00:00,205.0,211.0,12.55,14.0,,47.59359,-54.27349
2018-02-05 08:50:00+00:00,206.0,212.0,13.21,14.92,,47.59359,-54.27349
2018-02-05 09:00:00+00:00,211.0,209.0,12.11,13.94,,47.59359,-54.27349
2018-02-05 09:10:00+00:00,203.0,205.0,11.46,12.94,,47.59359,-54.27349
2018-02-05 09:20:00+00:00,213.0,213.0,12.76,14.81,,47.59359,-54.27349
2018-02-05 09:30:00+00:00,207.0,216.0,13.07,14.34,,47.59359,-54.27349
2018-02-05 09:40:00+00:00,208.0,210.0,13.58,15.8,,47.59359,-54.27349
2018-02-05 09:50:00+00:00,202.0,207.0,11.44,13.53,,47.59359,-54.27349
2018-02-05 10:00:00+00:00,204.0,209.0,13.34,14.94,,47.59359,-54.27349
2018-02-05 10:10:00+00:00,208.0,209.0,13.92,15.71,,47.59359,-54.27349
2018-02-05 10:20:00+00:00,203.0,205.0,13.92,15.95,,47.59359,-54.27349
2018-02-05 10:30:00+00:00,202.0,203.0,13.5,15.11,,47.59359,-54.27349
2018-02-05 10:40:00+00:00,205.0,194.0,11.85,14.36,,47.59359,-54.27349
2018-02-05 10:50:00+00:00,203.0,206.0,12.23,13.97,,47.59359,-54.27349
2018-02-05 11:00:00+00:00,201.0,195.0,12.25,14.21,,47.59359,-54.27349
2018-02-05 11:10:00+00:00,201.0,214.0,11.29,14.17,,47.59359,-54.27349
2018-02-05 11:20:00+00:00,198.0,196.0,12.6,14.42,,47.59359,-54.27349
2018-02-05 11:30:00+00:00,195.0,188.0,12.98,15.74,,47.59359,-54.27349
2018-02-05 11:40:00+00:00,196.0,199.0,11.72,13.39,,47.59359,-54.27349
2018-02-05 11:50:00+00:00,198.0,202.0,11.92,13.53,,47.59359,-54.27349
2018-02-05 12:00:00+00:00,194.0,198.0,12.1,13.89,,47.59359,-54.27349
2018-02-05 12:10:00+00:00,189.0,186.0,13.55,15.71,,47.59359,-54.27349
2018-02-05 12:20:00+00:00,203.0,214.0,12.66,17.75,,47.59359,-54.27349
2018-02-05 12:30:00+00:00,203.0,203.0,12.66,14.89,,47.59359,-54.27349
2018-02-05 12:40:00+00:00,202.0,201.0,12.97,14.93,,47.59359,-54.27349
2018-02-05 12:50:00+00:00,199.0,189.0,13.87,16.23,,47.59359,-54.27349
2018-02-05 13:00:00+00:00,187.0,180.0,12.19,15.62,,47.59359,-54.27349
2018-02-05 13:10:00+00:00,190.0,191.0,11.09,13.08,,47.59359,-54.27349
2018-02-05 13:20:00+00:00,186.0,183.0,10.01,12.38,,47.59359,-54.27349
2018-02-05 13:30:00+00:00,189.0,192.0,10.92,12.35,,47.59359,-54.27349
2018-02-05 13:40:00+00:00,179.0,181.0,11.74,12.87,,47.59359,-54.27349
2018-02-05 13:50:00+00:00,176.0,164.0,9.6,10.82,,47.59359,-54.27349
2018-02-05 14:00:00+00:00,180.0,184.0,9.92,12.79,,47.59359,-54.27349
2018-02-05 14:10:00+00:00,176.0,170.0,10.5,14.48,,47.59359,-54.27349
2018-02-05 14:20:00+00:00,183.0,183.0,11.5,13.46,,47.59359,-54.27349
2018-02-05 14:30:00+00:00,186.0,180.0,12.93,15.46,,47.59359,-54.27349
2018-02-05 14:40:00+00:00,178.0,180.0,9.91,11.98,,47.59359,-54.27349
2018-02-05 14:50:00+00:00,184.0,189.0,11.41,13.63,,47.59359,-54.27349
2018-02-05 15:00:00+00:00,190.0,190.0,10.26,11.81,,47.59359,-54.27349
2018-02-05 15:10:00+00:00,191.0,193.0,10.66,11.69,,47.59359,-54.27349
2018-02-05 15:20:00+00:00,192.0,195.0,8.92,11.06,,47.59359,-54.27349
2018-02-05 15:30:00+00:00,202.0,204.0,12.64,14.63,,47.59359,-54.27349
2018-02-05 15:40:00+00:00,198.0,201.0,12.6,16.5,,47.59359,-54.27349
2018-02-05 15:50:00+00:00,198.0,192.0,15.82,18.54,,47.59359,-54.27349
2018-02-05 16:00:00+00:00,203.0,203.0,13.08,15.2,,47.59359,-54.27349
2018-02-05 16:10:00+00:00,197.0,198.0,15.81,19.48,,47.59359,-54.27349
2018-02-05 16:20:00+00:00,194.0,194.0,11.81,14.07,,47.59359,-54.27349
2018-02-05 16:30:00+00:00,200.0,202.0,13.35,14.92,,47.59359,-54.27349
2018-02-05 16:40:00+00:00,199.0,198.0,12.09,13.41,,47.59359,-54.27349
2018-02-05 16:50:00+00:00,202.0,201.0,11.62,15.08,,47.59359,-54.27349
2018-02-05 17:00:00+00:00,208.0,212.0,14.42,16.55,,47.59359,-54.27349
2018-02-05 17:10:00+00:00,207.0,212.0,12.9,14.47,,47.59359,-54.27349
2018-02-05 17:20:00+00:00,199.0,199.0,11.93,13.68,,47.59359,-54.27349
2018-02-05 17:30:00+00:00,197.0,205.0,11.9,13.9,,47.59359,-54.27349
2018-02-05 17:40:00+00:00,194.0,193.0,11.28,12.88,,47.59359,-54.27349
2018-02-05 17:50:00+00:00,192.0,197.0,10.14,11.99,,47.59359,-54.27349
2018-02-05 18:00:00+00:00,190.0,190.0,12.82,14.44,,47.59359,-54.27349
2018-02-05 18:10:00+00:00,195.0,194.0,11.12,12.33,,47.59359,-54.27349
2018-02-05 18:20:00+00:00,196.0,200.0,10.84,12.43,,47.59359,-54.27349
2018-02-05 18:30:00+00:00,197.0,207.0,13.36,14.98,,47.59359,-54.27349
2018-02-05 18:40:00+00:00,203.0,205.0,11.7,13.77,,47.59359,-54.27349
2018-02-05 18:50:00+00:00,204.0,211.0,12.45,14.86,,47.59359,-54.27349
2018-02-05 19:00:00+00:00,203.0,209.0,13.81,15.36,,47.59359,-54.27349
2018-02-05 19:10:00+00:00,197.0,198.0,12.8,14.7,,47.59359,-54.27349
2018-02-05 19:20:00+00:00,207.0,203.0,12.01,16.63,,47.59359,-54.27349
2018-02-05 19:30:00+00:00,207.0,203.0,14.28,19.59,,47.59359,-54.27349
2018-02-05 19:40:00+00:00,209.0,206.0,13.98,16.42,,47.59359,-54.27349
2018-02-05 19:50:00+00:00,202.0,204.0,13.18,15.09,,47.59359,-54.27349
2018-02-05 20:00:00+00:00,209.0,213.0,13.52,18.03,,47.59359,-54.27349
2018-02-05 20:10:00+00:00,201.0,202.0,17.04,19.77,,47.59359,-54.27349
2018-02-05 20:20:00+00:00,197.0,200.0,13.65,16.12,,47.59359,-54.27349
2018-02-05 20:30:00+00:00,193.0,198.0,14.02,16.55,,47.59359,-54.27349
2018-02-05 20:40:00+00:00,185.0,188.0,17.43,20.25,,47.59359,-54.27349
2018-02-05 20:50:00+00:00,181.0,177.0,15.07,20.82,,47.59359,-54.27349
2018-02-05 21:00:00+00:00,183.0,185.0,15.73,21.87,,47.59359,-54.27349
2018-02-05 21:10:00+00:00,187.0,189.0,15.67,19.37,,47.59359,-54.27349
2018-02-05 21:20:00+00:00,193.0,194.0,15.24,19.4,,47.59359,-54.27349
2018-02-05 21:30:00+00:00,186.0,187.0,16.99,19.14,,47.59359,-54.27349
2018-02-05 21:40:00+00:00,191.0,197.0,16.62,20.1,,47.59359,-54.27349
2018-02-05 21:50:00+00:00,191.0,190.0,18.85,23.56,,47.59359,-54.27349
2018-02-05 22:00:00+00:00,190.0,193.0,19.09,23.37,,47.59359,-54.27349
2018-02-05 22:10:00+00:00,192.0,192.0,19.83,29.36,,47.59359,-54.27349
2018-02-05 22:20:00+00:00,192.0,195.0,21.32,25.42,,47.59359,-54.27349
2018-02-05 22:30:00+00:00,194.0,190.0,18.09,21.98,,47.59359,-54.27349
2018-02-05 22:40:00+00:00,192.0,187.0,21.66,25.05,,47.59359,-54.27349
2018-02-05 22:50:00+00:00,188.0,195.0,20.72,25.55,,47.59359,-54.27349
2018-02-05 23:00:00+00:00,188.0,174.0,17.18,20.46,,47.59359,-54.27349
2018-02-05 23:10:00+00:00,189.0,202.0,21.14,24.42,,47.59359,-54.27349
2018-02-05 23:20:00+00:00,195.0,192.0,17.57,21.07,,47.59359,-54.27349
2018-02-05 23:30:00+00:00,190.0,200.0,16.53,18.79,,47.59359,-54.27349
2018-02-05 23:40:00+00:00,193.0,199.0,20.89,25.41,,47.59359,-54.27349
2018-02-05 23:50:00+00:00,197.0,204.0,20.43,26.09,,47.59359,-54.27349
